Time,TemperatureF,DewpointF,PressureIn,WindDirection,WindDirectionDegrees,WindSpeedMPH,WindSpeedGustMPH,Humidity,HourlyPrecipIn,Conditions,Clouds,dailyrainin,SolarRadiationWatts/m^2,SoftwareType,DateUTC
2013-06-07 00:02:00,54.5,45.3,29.80,NNE,27,3.0,3.0,71,0.00,,,0.00,0,Wunderground v.1.15,2013-06-07 06:02:00,
2013-06-07 00:08:00,54.6,45.4,29.79,NNE,16,4.0,4.0,71,0.00,,,0.00,0,Wunderground v.1.15,2013-06-07 06:08:00,
2013-06-07 00:14:00,54.8,45.2,29.79,NNE,15,3.0,4.0,70,0.00,,,0.00,0,Wunderground v.1.15,2013-06-07 06:14:00,
2013-06-07 00:20:00,54.9,45.7,29.80,NNE,15,1.0,1.0,71,0.00,,,0.00,0,Wunderground v.1.15,2013-06-07 06:20:00,
2013-06-07 00:26:00,55.0,46.1,29.80,NNE,15,0.0,1.0,72,0.00,,,0.00,0,Wunderground v.1.15,2013-06-07 06:26:00,
2013-06-07 00:32:00,55.1,45.5,29.80,NNE,26,1.0,2.0,70,0.00,,,0.00,0,Wunderground v.1.15,2013-06-07 06:32:00,
2013-06-07 00:38:00,55.1,45.9,29.79,NNE,31,1.0,2.0,71,0.00,,,0.00,0,Wunderground v.1.15,2013-06-07 06:38:00,
2013-06-07 00:44:00,55.1,45.5,29.80,NE,55,2.0,4.0,70,0.00,,,0.00,0,Wunderground v.1.15,2013-06-07 06:44:00,
2013-06-07 00:50:00,54.9,45.7,29.79,NE,53,2.0,5.0,71,0.00,,,0.00,0,Wunderground v.1.15,2013-06-07 06:50:00,
2013-06-07 00:56:00,54.6,45.8,29.79,NE,45,3.0,6.0,72,0.00,,,0.00,0,Wunderground v.1.15,2013-06-07 06:56:00,
2013-06-07 01:02:00,53.9,45.4,29.79,East,80,3.0,3.0,73,0.00,,,0.00,0,Wunderground v.1.15,2013-06-07 07:02:00,
2013-06-07 01:08:00,53.0,45.3,29.79,NE,54,4.0,6.0,75,0.00,,,0.00,0,Wunderground v.1.15,2013-06-07 07:08:00,
2013-06-07 01:14:00,52.3,45.0,29.79,NE,51,6.0,6.0,76,0.00,,,0.00,0,Wunderground v.1.15,2013-06-07 07:14:00,
2013-06-07 01:20:00,51.7,45.1,29.78,NE,44,4.0,8.0,78,0.00,,,0.00,0,Wunderground v.1.15,2013-06-07 07:20:00,
2013-06-07 01:26:00,51.4,45.1,29.78,NE,53,5.0,8.0,79,0.00,,,0.00,0,Wunderground v.1.15,2013-06-07 07:26:00,
2013-06-07 01:32:00,51.1,44.8,29.78,NNE,32,6.0,6.0,79,0.00,,,0.00,0,Wunderground v.1.15,2013-06-07 07:32:00,
2013-06-07 01:38:00,51.1,45.1,29.78,East,92,5.0,6.0,80,0.00,,,0.00,0,Wunderground v.1.15,2013-06-07 07:38:00,
2013-06-07 01:44:00,51.2,44.9,29.78,ENE,78,5.0,5.0,79,0.00,,,0.00,0,Wunderground v.1.15,2013-06-07 07:44:00,
2013-06-07 01:50:00,51.3,45.0,29.78,NE,50,5.0,5.0,79,0.00,,,0.00,0,Wunderground v.1.15,2013-06-07 07:50:00,
2013-06-07 01:56:00,51.1,44.8,29.78,NE,48,5.0,6.0,79,0.00,,,0.00,0,Wunderground v.1.15,2013-06-07 07:56:00,
2013-06-07 02:02:00,50.9,44.6,29.78,NE,51,5.0,5.0,79,0.00,,,0.00,0,Wunderground v.1.15,2013-06-07 08:02:00,
2013-06-07 02:08:00,50.8,44.9,29.78,NE,49,4.0,5.0,80,0.00,,,0.00,0,Wunderground v.1.15,2013-06-07 08:08:00,
2013-06-07 02:14:00,50.8,44.9,29.78,NE,56,4.0,6.0,80,0.00,,,0.00,0,Wunderground v.1.15,2013-06-07 08:14:00,
2013-06-07 02:20:00,50.7,44.4,29.78,NE,43,5.0,6.0,79,0.00,,,0.00,0,Wunderground v.1.15,2013-06-07 08:20:00,
2013-06-07 02:26:00,50.7,44.8,29.77,NNE,23,6.0,6.0,80,0.00,,,0.00,0,Wunderground v.1.15,2013-06-07 08:26:00,
2013-06-07 02:32:00,50.9,44.6,29.78,NE,46,6.0,6.0,79,0.00,,,0.00,0,Wunderground v.1.15,2013-06-07 08:32:00,
2013-06-07 02:38:00,51.2,44.9,29.78,NE,46,5.0,6.0,79,0.00,,,0.00,0,Wunderground v.1.15,2013-06-07 08:38:00,
2013-06-07 02:44:00,51.5,44.9,29.78,ENE,62,6.0,9.0,78,0.00,,,0.00,0,Wunderground v.1.15,2013-06-07 08:44:00,
2013-06-07 02:50:00,51.7,44.7,29.78,NE,42,6.0,6.0,77,0.00,,,0.00,0,Wunderground v.1.15,2013-06-07 08:50:00,
2013-06-07 02:56:00,51.6,44.6,29.78,ENE,58,5.0,7.0,77,0.00,,,0.00,0,Wunderground v.1.15,2013-06-07 08:56:00,
2013-06-07 03:02:00,51.4,44.4,29.77,ENE,71,5.0,5.0,77,0.00,,,0.00,0,Wunderground v.1.15,2013-06-07 09:02:00,
2013-06-07 03:08:00,51.1,44.5,29.77,ENE,61,4.0,6.0,78,0.00,,,0.00,0,Wunderground v.1.15,2013-06-07 09:08:00,
2013-06-07 03:16:00,51.0,44.4,29.77,ENE,70,4.0,4.0,78,0.00,,,0.00,0,Wunderground v.1.15,2013-06-07 09:16:00,
2013-06-07 03:22:00,51.2,44.2,29.77,ENE,67,4.0,4.0,77,0.00,,,0.00,0,Wunderground v.1.15,2013-06-07 09:22:00,
2013-06-07 03:30:00,51.0,44.4,29.77,NE,47,4.0,7.0,78,0.00,,,0.00,0,Wunderground v.1.15,2013-06-07 09:30:00,
2013-06-07 03:36:00,51.0,44.4,29.77,ENE,58,5.0,7.0,78,0.00,,,0.00,0,Wunderground v.1.15,2013-06-07 09:36:00,
2013-06-07 03:42:00,51.0,44.4,29.77,NE,43,6.0,6.0,78,0.00,,,0.00,0,Wunderground v.1.15,2013-06-07 09:42:00,
2013-06-07 03:52:00,50.9,44.3,29.78,ENE,59,5.0,5.0,78,0.00,,,0.00,0,Wunderground v.1.15,2013-06-07 09:52:00,
2013-06-07 04:00:00,50.7,44.1,29.77,NE,55,4.0,7.0,78,0.00,,,0.00,0,Wunderground v.1.15,2013-06-07 10:00:00,
2013-06-07 04:06:00,50.6,43.7,29.77,East,79,5.0,7.0,77,0.00,,,0.00,0,Wunderground v.1.15,2013-06-07 10:06:00,
2013-06-07 04:14:00,50.3,43.7,29.77,NE,49,4.0,5.0,78,0.00,,,0.00,0,Wunderground v.1.15,2013-06-07 10:14:00,
2013-06-07 04:22:00,49.9,43.6,29.76,East,81,4.0,4.0,79,0.00,,,0.00,0,Wunderground v.1.15,2013-06-07 10:22:00,
2013-06-07 04:28:00,49.6,43.4,29.76,ENE,76,4.0,5.0,79,0.00,,,0.00,0,Wunderground v.1.15,2013-06-07 10:28:00,
2013-06-07 04:34:00,49.5,43.6,29.76,NE,55,5.0,5.0,80,0.00,,,0.00,0,Wunderground v.1.15,2013-06-07 10:34:00,
2013-06-07 04:40:00,49.5,43.6,29.76,NE,51,5.0,7.0,80,0.00,,,0.00,0,Wunderground v.1.15,2013-06-07 10:40:00,
2013-06-07 04:48:00,49.6,43.7,29.76,NE,47,5.0,6.0,80,0.00,,,0.00,0,Wunderground v.1.15,2013-06-07 10:48:00,
2013-06-07 04:54:00,49.6,43.7,29.76,NE,41,5.0,5.0,80,0.00,,,0.00,0,Wunderground v.1.15,2013-06-07 10:54:00,
2013-06-07 05:00:00,49.8,43.5,29.76,NE,52,6.0,6.0,79,0.00,,,0.00,0,Wunderground v.1.15,2013-06-07 11:00:00,
2013-06-07 05:06:00,50.0,43.7,29.76,ENE,66,6.0,6.0,79,0.00,,,0.00,0,Wunderground v.1.15,2013-06-07 11:06:00,
2013-06-07 05:12:00,50.3,44.0,29.76,ENE,65,6.0,6.0,79,0.00,,,0.00,0,Wunderground v.1.15,2013-06-07 11:12:00,
2013-06-07 05:18:00,50.4,44.1,29.76,NE,46,5.0,6.0,79,0.00,,,0.00,0,Wunderground v.1.15,2013-06-07 11:18:00,
2013-06-07 05:24:00,50.5,44.2,29.76,NE,53,4.0,6.0,79,0.00,,,0.00,0,Wunderground v.1.15,2013-06-07 11:24:00,
2013-06-07 05:30:00,50.4,44.1,29.76,NE,49,5.0,5.0,79,0.00,,,0.00,0,Wunderground v.1.15,2013-06-07 11:30:00,
2013-06-07 05:36:00,50.3,44.0,29.76,NE,44,5.0,7.0,79,0.00,,,0.00,0,Wunderground v.1.15,2013-06-07 11:36:00,
2013-06-07 05:42:00,50.2,43.9,29.76,NE,48,5.0,5.0,79,0.00,,,0.00,0,Wunderground v.1.15,2013-06-07 11:42:00,
2013-06-07 05:48:00,50.1,43.8,29.76,NE,47,4.0,6.0,79,0.00,,,0.00,5,Wunderground v.1.15,2013-06-07 11:48:00,
2013-06-07 05:54:00,50.0,43.7,29.76,NE,55,5.0,5.0,79,0.00,,,0.00,9,Wunderground v.1.15,2013-06-07 11:54:00,
2013-06-07 06:00:00,50.1,43.8,29.76,NE,49,5.0,5.0,79,0.00,,,0.00,12,Wunderground v.1.15,2013-06-07 12:00:00,
2013-06-07 06:06:00,50.1,43.8,29.76,ENE,66,5.0,6.0,79,0.00,,,0.00,18,Wunderground v.1.15,2013-06-07 12:06:00,
2013-06-07 06:12:00,50.2,43.9,29.76,East,85,5.0,5.0,79,0.00,,,0.00,26,Wunderground v.1.15,2013-06-07 12:12:00,
2013-06-07 06:20:00,50.5,44.2,29.76,NE,37,3.0,4.0,79,0.00,,,0.00,33,Wunderground v.1.15,2013-06-07 12:20:00,
2013-06-07 06:26:00,50.7,44.4,29.76,NE,44,3.0,4.0,79,0.00,,,0.00,26,Wunderground v.1.15,2013-06-07 12:26:00,
2013-06-07 06:32:00,50.9,44.3,29.77,NE,52,3.0,6.0,78,0.00,,,0.00,25,Wunderground v.1.15,2013-06-07 12:32:00,
2013-06-07 06:38:00,51.2,44.6,29.77,NE,44,4.0,6.0,78,0.00,,,0.00,30,Wunderground v.1.15,2013-06-07 12:38:00,
2013-06-07 06:44:00,51.4,44.8,29.77,ENE,76,4.0,4.0,78,0.00,,,0.00,35,Wunderground v.1.15,2013-06-07 12:44:00,
2013-06-07 06:50:00,51.5,44.9,29.77,NE,53,5.0,5.0,78,0.00,,,0.00,35,Wunderground v.1.15,2013-06-07 12:50:00,
2013-06-07 06:56:00,51.7,45.1,29.77,NE,49,5.0,5.0,78,0.00,,,0.00,49,Wunderground v.1.15,2013-06-07 12:56:00,
2013-06-07 07:02:00,51.9,45.3,29.77,ENE,77,4.0,6.0,78,0.00,,,0.00,60,Wunderground v.1.15,2013-06-07 13:02:00,
2013-06-07 07:08:00,52.1,45.1,29.77,NE,46,4.0,6.0,77,0.00,,,0.00,69,Wunderground v.1.15,2013-06-07 13:08:00,
2013-06-07 07:14:00,52.3,45.3,29.76,NE,38,3.0,5.0,77,0.00,,,0.00,88,Wunderground v.1.15,2013-06-07 13:14:00,
2013-06-07 07:20:00,52.7,45.7,29.76,NE,45,4.0,5.0,77,0.00,,,0.00,84,Wunderground v.1.15,2013-06-07 13:20:00,
2013-06-07 07:26:00,53.3,45.9,29.76,NE,54,4.0,8.0,76,0.00,,,0.00,84,Wunderground v.1.15,2013-06-07 13:26:00,
2013-06-07 07:32:00,53.9,46.2,29.76,NE,44,6.0,8.0,75,0.00,,,0.00,91,Wunderground v.1.15,2013-06-07 13:32:00,
2013-06-07 07:38:00,54.4,46.3,29.76,NE,42,6.0,8.0,74,0.00,,,0.00,91,Wunderground v.1.15,2013-06-07 13:38:00,
2013-06-07 07:44:00,54.8,47.0,29.76,NNE,32,5.0,6.0,75,0.00,,,0.00,128,Wunderground v.1.15,2013-06-07 13:44:00,
2013-06-07 07:50:00,55.5,48.4,29.76,NE,56,4.0,4.0,77,0.00,,,0.00,179,Wunderground v.1.15,2013-06-07 13:50:00,
2013-06-07 07:56:00,56.7,48.5,29.76,NE,49,4.0,6.0,74,0.00,,,0.00,165,Wunderground v.1.15,2013-06-07 13:56:00,
2013-06-07 08:02:00,58.0,48.6,29.76,ENE,57,4.0,4.0,71,0.00,,,0.00,190,Wunderground v.1.15,2013-06-07 14:02:00,
2013-06-07 08:08:00,59.3,49.1,29.76,NE,46,4.0,5.0,69,0.00,,,0.00,211,Wunderground v.1.15,2013-06-07 14:08:00,
2013-06-07 08:14:00,60.5,48.7,29.75,NE,51,4.0,6.0,65,0.00,,,0.00,174,Wunderground v.1.15,2013-06-07 14:14:00,
2013-06-07 08:20:00,61.3,49.4,29.76,NE,55,4.0,4.0,65,0.00,,,0.00,181,Wunderground v.1.15,2013-06-07 14:20:00,
2013-06-07 08:26:00,61.6,48.9,29.75,NE,40,3.0,6.0,63,0.00,,,0.00,221,Wunderground v.1.15,2013-06-07 14:26:00,
2013-06-07 08:32:00,61.9,49.2,29.75,NE,42,4.0,4.0,63,0.00,,,0.00,243,Wunderground v.1.15,2013-06-07 14:32:00,
2013-06-07 08:38:00,62.5,48.4,29.75,NE,44,4.0,5.0,60,0.00,,,0.00,248,Wunderground v.1.15,2013-06-07 14:38:00,
2013-06-07 08:44:00,63.2,47.7,29.75,NE,53,4.0,4.0,57,0.00,,,0.00,313,Wunderground v.1.15,2013-06-07 14:44:00,
2013-06-07 08:50:00,64.2,48.2,29.75,NE,49,3.0,4.0,56,0.00,,,0.00,424,Wunderground v.1.15,2013-06-07 14:50:00,
2013-06-07 08:56:00,65.6,48.5,29.75,ENE,78,3.0,6.0,54,0.00,,,0.00,577,Wunderground v.1.15,2013-06-07 14:56:00,
2013-06-07 09:02:00,66.9,48.2,29.75,East,101,3.0,6.0,51,0.00,,,0.00,621,Wunderground v.1.15,2013-06-07 15:02:00,
2013-06-07 09:08:00,67.9,48.0,29.74,NE,42,4.0,6.0,49,0.00,,,0.00,598,Wunderground v.1.15,2013-06-07 15:08:00,
2013-06-07 09:14:00,68.6,47.6,29.74,NE,55,4.0,6.0,47,0.00,,,0.00,652,Wunderground v.1.15,2013-06-07 15:14:00,
2013-06-07 09:20:00,69.2,48.7,29.74,NNE,25,5.0,7.0,48,0.00,,,0.00,701,Wunderground v.1.15,2013-06-07 15:20:00,
2013-06-07 09:26:00,69.4,48.3,29.74,NE,34,5.0,7.0,47,0.00,,,0.00,552,Wunderground v.1.15,2013-06-07 15:26:00,
2013-06-07 09:32:00,69.5,48.9,29.74,NE,47,5.0,5.0,48,0.00,,,0.00,406,Wunderground v.1.15,2013-06-07 15:32:00,
2013-06-07 09:38:00,69.6,46.7,29.74,NE,38,4.0,6.0,44,0.00,,,0.00,309,Wunderground v.1.15,2013-06-07 15:38:00,
2013-06-07 09:44:00,69.4,47.1,29.74,NE,38,3.0,5.0,45,0.00,,,0.00,225,Wunderground v.1.15,2013-06-07 15:44:00,
2013-06-07 09:50:00,69.1,46.3,29.75,NE,53,2.0,2.0,44,0.00,,,0.00,172,Wunderground v.1.15,2013-06-07 15:50:00,
2013-06-07 09:56:00,68.7,46.5,29.74,NE,44,1.0,4.0,45,0.00,,,0.00,167,Wunderground v.1.15,2013-06-07 15:56:00,
2013-06-07 10:02:00,68.2,47.2,29.74,NE,51,1.0,1.0,47,0.00,,,0.00,192,Wunderground v.1.15,2013-06-07 16:02:00,
2013-06-07 10:08:00,67.8,47.9,29.74,NE,34,0.0,4.0,49,0.00,,,0.00,283,Wunderground v.1.15,2013-06-07 16:08:00,
2013-06-07 10:14:00,67.7,47.8,29.73,NE,46,0.0,4.0,49,0.00,,,0.00,330,Wunderground v.1.15,2013-06-07 16:14:00,
2013-06-07 10:20:00,68.2,49.4,29.73,NNE,29,2.0,6.0,51,0.00,,,0.00,821,Wunderground v.1.15,2013-06-07 16:20:00,
2013-06-07 10:26:00,69.4,49.4,29.73,ENE,69,3.0,6.0,49,0.00,,,0.00,772,Wunderground v.1.15,2013-06-07 16:26:00,
2013-06-07 10:32:00,70.4,49.2,29.72,NE,34,3.0,5.0,47,0.00,,,0.00,777,Wunderground v.1.15,2013-06-07 16:32:00,
2013-06-07 10:38:00,71.5,48.4,29.72,ENE,57,3.0,5.0,44,0.00,,,0.00,779,Wunderground v.1.15,2013-06-07 16:38:00,
2013-06-07 10:44:00,72.4,49.9,29.72,NNE,30,4.0,4.0,45,0.00,,,0.00,786,Wunderground v.1.15,2013-06-07 16:44:00,
2013-06-07 10:50:00,73.1,51.1,29.71,NE,55,4.0,7.0,46,0.00,,,0.00,796,Wunderground v.1.15,2013-06-07 16:50:00,
2013-06-07 10:56:00,73.8,49.9,29.72,NNE,19,4.0,7.0,43,0.00,,,0.00,821,Wunderground v.1.15,2013-06-07 16:56:00,
2013-06-07 11:04:00,74.4,49.2,29.71,South,171,4.0,4.0,41,0.00,,,0.00,819,Wunderground v.1.15,2013-06-07 17:04:00,
2013-06-07 11:10:00,74.7,49.4,29.70,South,188,4.0,6.0,41,0.00,,,0.00,865,Wunderground v.1.15,2013-06-07 17:10:00,
2013-06-07 11:16:00,74.9,50.3,29.71,South,177,6.0,7.0,42,0.00,,,0.00,879,Wunderground v.1.15,2013-06-07 17:16:00,
2013-06-07 11:22:00,75.0,47.0,29.71,SSE,150,7.0,12.0,37,0.00,,,0.00,905,Wunderground v.1.15,2013-06-07 17:22:00,
2013-06-07 11:28:00,75.2,48.5,29.70,SSW,196,6.0,12.0,39,0.00,,,0.00,937,Wunderground v.1.15,2013-06-07 17:28:00,
2013-06-07 11:34:00,75.7,48.3,29.70,South,178,6.0,9.0,38,0.00,,,0.00,1005,Wunderground v.1.15,2013-06-07 17:34:00,
2013-06-07 11:40:00,76.0,44.8,29.70,SSE,163,7.0,18.0,33,0.00,,,0.00,1007,Wunderground v.1.15,2013-06-07 17:40:00,
2013-06-07 11:46:00,75.9,45.5,29.69,South,175,11.0,18.0,34,0.00,,,0.00,338,Wunderground v.1.15,2013-06-07 17:46:00,
2013-06-07 11:52:00,75.6,46.0,29.69,SW,221,11.0,13.0,35,0.00,,,0.00,589,Wunderground v.1.15,2013-06-07 17:52:00,
2013-06-07 11:58:00,75.3,49.3,29.68,SSW,205,9.0,13.0,40,0.00,,,0.00,429,Wunderground v.1.15,2013-06-07 17:58:00,
2013-06-07 12:04:00,75.3,51.3,29.68,South,181,7.0,8.0,43,0.00,,,0.00,1060,Wunderground v.1.15,2013-06-07 18:04:00,
2013-06-07 12:10:00,76.4,47.5,29.68,SSW,200,9.0,12.0,36,0.00,,,0.00,1172,Wunderground v.1.15,2013-06-07 18:10:00,
2013-06-07 12:16:00,77.5,49.2,29.67,SW,217,10.0,12.0,37,0.00,,,0.00,1132,Wunderground v.1.15,2013-06-07 18:16:00,
2013-06-07 12:22:00,77.9,47.3,29.67,South,188,7.0,11.0,34,0.00,,,0.00,1194,Wunderground v.1.15,2013-06-07 18:22:00,
2013-06-07 12:28:00,77.8,44.7,29.67,SSE,160,8.0,11.0,31,0.00,,,0.00,1194,Wunderground v.1.15,2013-06-07 18:28:00,
2013-06-07 12:34:00,77.6,45.4,29.67,SSE,149,10.0,15.0,32,0.00,,,0.00,492,Wunderground v.1.15,2013-06-07 18:34:00,
2013-06-07 12:40:00,77.3,45.1,29.67,South,171,10.0,10.0,32,0.00,,,0.00,1234,Wunderground v.1.15,2013-06-07 18:40:00,
2013-06-07 12:50:00,77.3,47.5,29.66,SSE,157,10.0,11.0,35,0.00,,,0.00,1292,Wunderground v.1.15,2013-06-07 18:50:00,
2013-06-07 12:56:00,77.3,43.4,29.66,SSE,162,12.0,14.0,30,0.00,,,0.00,990,Wunderground v.1.15,2013-06-07 18:56:00,
2013-06-07 13:02:00,77.1,41.5,29.66,SE,143,14.0,15.0,28,0.00,,,0.00,403,Wunderground v.1.15,2013-06-07 19:02:00,
2013-06-07 13:08:00,76.1,42.4,29.66,SSE,162,14.0,15.0,30,0.00,,,0.00,390,Wunderground v.1.15,2013-06-07 19:08:00,
2013-06-07 13:14:00,75.6,42.8,29.66,ESE,119,12.0,14.0,31,0.00,,,0.00,494,Wunderground v.1.15,2013-06-07 19:14:00,
2013-06-07 13:20:00,75.4,42.7,29.66,SSE,158,13.0,19.0,31,0.00,,,0.00,366,Wunderground v.1.15,2013-06-07 19:20:00,
2013-06-07 13:26:00,75.2,42.5,29.66,SSE,164,14.0,19.0,31,0.00,,,0.00,364,Wunderground v.1.15,2013-06-07 19:26:00,
2013-06-07 13:34:00,74.8,44.5,29.66,SE,144,13.0,14.0,34,0.00,,,0.00,376,Wunderground v.1.15,2013-06-07 19:34:00,
2013-06-07 13:40:00,74.5,42.7,29.65,South,172,13.0,15.0,32,0.00,,,0.00,473,Wunderground v.1.15,2013-06-07 19:40:00,
2013-06-07 13:46:00,74.7,42.9,29.66,SE,128,14.0,17.0,32,0.00,,,0.00,520,Wunderground v.1.15,2013-06-07 19:46:00,
2013-06-07 13:52:00,75.9,43.9,29.66,SE,144,15.0,19.0,32,0.00,,,0.00,1172,Wunderground v.1.15,2013-06-07 19:52:00,
2013-06-07 13:58:00,76.9,44.0,29.65,SSE,157,17.0,21.0,31,0.00,,,0.00,879,Wunderground v.1.15,2013-06-07 19:58:00,
2013-06-07 14:04:00,77.1,43.3,29.65,South,171,16.0,17.0,30,0.00,,,0.00,821,Wunderground v.1.15,2013-06-07 20:04:00,
2013-06-07 14:10:00,77.0,43.2,29.65,SSE,164,14.0,22.0,30,0.00,,,0.00,499,Wunderground v.1.15,2013-06-07 20:10:00,
2013-06-07 14:16:00,76.1,41.5,29.66,SSE,162,16.0,22.0,29,0.00,,,0.00,649,Wunderground v.1.15,2013-06-07 20:16:00,
2013-06-07 14:22:00,75.5,43.6,29.65,South,169,16.0,17.0,32,0.00,,,0.00,592,Wunderground v.1.15,2013-06-07 20:22:00,
2013-06-07 14:28:00,75.5,43.6,29.65,SE,146,14.0,17.0,32,0.00,,,0.00,677,Wunderground v.1.15,2013-06-07 20:28:00,
2013-06-07 14:36:00,75.6,43.7,29.65,South,169,15.0,15.0,32,0.00,,,0.00,707,Wunderground v.1.15,2013-06-07 20:36:00,
2013-06-07 14:44:00,75.9,46.3,29.64,SSE,156,12.0,15.0,35,0.00,,,0.00,861,Wunderground v.1.15,2013-06-07 20:44:00,
2013-06-07 14:50:00,76.3,45.9,29.64,SE,136,12.0,15.0,34,0.00,,,0.00,933,Wunderground v.1.15,2013-06-07 20:50:00,
2013-06-07 14:56:00,76.7,45.4,29.64,SSE,162,13.0,15.0,33,0.00,,,0.00,793,Wunderground v.1.15,2013-06-07 20:56:00,
2013-06-07 15:02:00,76.7,45.4,29.63,SSE,153,13.0,14.0,33,0.00,,,0.00,531,Wunderground v.1.15,2013-06-07 21:02:00,
2013-06-07 15:10:00,76.1,44.9,29.63,SSE,159,12.0,12.0,33,0.00,,,0.00,526,Wunderground v.1.15,2013-06-07 21:10:00,
2013-06-07 15:16:00,75.6,45.2,29.63,SSE,164,14.0,19.0,34,0.00,,,0.00,506,Wunderground v.1.15,2013-06-07 21:16:00,
2013-06-07 15:22:00,75.3,44.2,29.62,South,180,14.0,16.0,33,0.00,,,0.00,439,Wunderground v.1.15,2013-06-07 21:22:00,
2013-06-07 15:30:00,75.1,44.0,29.63,SSE,151,11.0,22.0,33,0.00,,,0.00,464,Wunderground v.1.15,2013-06-07 21:30:00,
2013-06-07 15:36:00,75.0,43.9,29.62,SSE,155,14.0,22.0,33,0.00,,,0.00,408,Wunderground v.1.15,2013-06-07 21:36:00,
2013-06-07 15:42:00,74.9,43.8,29.62,SSE,157,14.0,16.0,33,0.00,,,0.00,378,Wunderground v.1.15,2013-06-07 21:42:00,
2013-06-07 15:48:00,74.8,43.0,29.62,SSE,150,14.0,16.0,32,0.00,,,0.00,318,Wunderground v.1.15,2013-06-07 21:48:00,
2013-06-07 15:54:00,74.7,42.9,29.62,South,172,15.0,16.0,32,0.00,,,0.00,276,Wunderground v.1.15,2013-06-07 21:54:00,
2013-06-07 16:00:00,74.5,43.5,29.61,South,176,15.0,15.0,33,0.00,,,0.00,295,Wunderground v.1.15,2013-06-07 22:00:00,
2013-06-07 16:06:00,74.4,42.6,29.62,SSE,163,14.0,20.0,32,0.00,,,0.00,241,Wunderground v.1.15,2013-06-07 22:06:00,
2013-06-07 16:12:00,74.2,43.2,29.61,SSE,157,13.0,13.0,33,0.00,,,0.00,223,Wunderground v.1.15,2013-06-07 22:12:00,
2013-06-07 16:20:00,74.1,43.9,29.61,SSE,150,12.0,14.0,34,0.00,,,0.00,232,Wunderground v.1.15,2013-06-07 22:20:00,
2013-06-07 16:26:00,74.1,43.9,29.61,SSE,162,11.0,14.0,34,0.00,,,0.00,250,Wunderground v.1.15,2013-06-07 22:26:00,
2013-06-07 16:32:00,74.2,44.8,29.61,South,171,10.0,14.0,35,0.00,,,0.00,248,Wunderground v.1.15,2013-06-07 22:32:00,
2013-06-07 16:38:00,74.3,44.1,29.61,SSE,160,11.0,14.0,34,0.00,,,0.00,267,Wunderground v.1.15,2013-06-07 22:38:00,
2013-06-07 16:44:00,74.5,44.3,29.61,South,185,13.0,20.0,34,0.00,,,0.00,279,Wunderground v.1.15,2013-06-07 22:44:00,
2013-06-07 16:52:00,74.5,44.3,29.61,SSE,166,12.0,12.0,34,0.00,,,0.00,316,Wunderground v.1.15,2013-06-07 22:52:00,
2013-06-07 16:58:00,74.7,44.5,29.61,SSE,168,11.0,17.0,34,0.00,,,0.00,323,Wunderground v.1.15,2013-06-07 22:58:00,
2013-06-07 17:04:00,74.7,45.2,29.61,SSE,157,13.0,14.0,35,0.00,,,0.00,299,Wunderground v.1.15,2013-06-07 23:04:00,
2013-06-07 17:14:00,74.6,45.1,29.61,SE,133,11.0,15.0,35,0.00,,,0.00,295,Wunderground v.1.15,2013-06-07 23:14:00,
2013-06-07 17:22:00,74.6,45.1,29.61,SSE,149,13.0,17.0,35,0.00,,,0.00,267,Wunderground v.1.15,2013-06-07 23:22:00,
2013-06-07 17:28:00,74.4,45.0,29.61,SSE,163,15.0,17.0,35,0.00,,,0.00,338,Wunderground v.1.15,2013-06-07 23:28:00,
2013-06-07 17:34:00,74.7,46.0,29.61,South,169,13.0,16.0,36,0.00,,,0.00,223,Wunderground v.1.15,2013-06-07 23:34:00,
2013-06-07 17:40:00,74.7,44.5,29.61,SE,127,13.0,15.0,34,0.00,,,0.00,223,Wunderground v.1.15,2013-06-07 23:40:00,
2013-06-07 17:46:00,74.6,46.6,29.62,ESE,105,11.0,15.0,37,0.00,,,0.00,765,Wunderground v.1.15,2013-06-07 23:46:00,
2013-06-07 17:54:00,75.5,46.7,29.61,SE,138,9.0,9.0,36,0.00,,,0.00,759,Wunderground v.1.15,2013-06-07 23:54:00,
2013-06-07 18:00:00,76.4,46.7,29.61,SE,134,10.0,10.0,35,0.00,,,0.00,788,Wunderground v.1.15,2013-06-08 00:00:00,
2013-06-07 18:06:00,77.1,45.8,29.61,ESE,123,11.0,16.0,33,0.00,,,0.00,754,Wunderground v.1.15,2013-06-08 00:06:00,
2013-06-07 18:12:00,77.7,47.1,29.60,SSE,163,10.0,11.0,34,0.00,,,0.00,738,Wunderground v.1.15,2013-06-08 00:12:00,
2013-06-07 18:18:00,78.3,46.0,29.60,SSE,164,8.0,12.0,32,0.00,,,0.00,703,Wunderground v.1.15,2013-06-08 00:18:00,
2013-06-07 18:24:00,78.2,45.9,29.60,SSW,192,11.0,14.0,32,0.00,,,0.00,673,Wunderground v.1.15,2013-06-08 00:24:00,
2013-06-07 18:30:00,78.2,45.9,29.60,West,278,8.0,8.0,32,0.00,,,0.00,610,Wunderground v.1.15,2013-06-08 00:30:00,
2013-06-07 18:36:00,78.1,45.8,29.61,SE,141,7.0,9.0,32,0.00,,,0.00,555,Wunderground v.1.15,2013-06-08 00:36:00,
2013-06-07 18:42:00,77.9,45.7,29.61,SSE,164,8.0,11.0,32,0.00,,,0.00,513,Wunderground v.1.15,2013-06-08 00:42:00,
2013-06-07 18:50:00,77.5,45.3,29.60,SE,138,8.0,12.0,32,0.00,,,0.00,452,Wunderground v.1.15,2013-06-08 00:50:00,
2013-06-07 18:56:00,76.9,44.8,29.61,SSE,168,11.0,15.0,32,0.00,,,0.00,418,Wunderground v.1.15,2013-06-08 00:56:00,
2013-06-07 19:02:00,76.1,44.1,29.61,South,173,12.0,12.0,32,0.00,,,0.00,388,Wunderground v.1.15,2013-06-08 01:02:00,
2013-06-07 19:10:00,75.1,44.0,29.60,South,174,13.0,13.0,33,0.00,,,0.00,366,Wunderground v.1.15,2013-06-08 01:10:00,
2013-06-07 19:16:00,74.6,44.4,29.61,South,171,13.0,16.0,34,0.00,,,0.00,339,Wunderground v.1.15,2013-06-08 01:16:00,
2013-06-07 19:24:00,74.0,43.8,29.61,South,170,13.0,13.0,34,0.00,,,0.00,313,Wunderground v.1.15,2013-06-08 01:24:00,
2013-06-07 19:30:00,73.6,43.5,29.61,SE,142,12.0,16.0,34,0.00,,,0.00,285,Wunderground v.1.15,2013-06-08 01:30:00,
2013-06-07 19:36:00,73.1,43.8,29.61,South,185,13.0,16.0,35,0.00,,,0.00,258,Wunderground v.1.15,2013-06-08 01:36:00,
2013-06-07 19:44:00,72.6,43.4,29.61,SSE,159,17.0,17.0,35,0.00,,,0.00,230,Wunderground v.1.15,2013-06-08 01:44:00,
2013-06-07 19:50:00,71.9,43.5,29.61,SSE,152,15.0,15.0,36,0.00,,,0.00,46,Wunderground v.1.15,2013-06-08 01:50:00,
2013-06-07 19:56:00,71.2,43.6,29.61,SSE,157,12.0,15.0,37,0.00,,,0.00,185,Wunderground v.1.15,2013-06-08 01:56:00,
2013-06-07 20:02:00,71.1,44.2,29.61,SSE,166,9.0,9.0,38,0.00,,,0.00,174,Wunderground v.1.15,2013-06-08 02:02:00,
2013-06-07 20:08:00,70.9,43.3,29.61,South,178,11.0,11.0,37,0.00,,,0.00,35,Wunderground v.1.15,2013-06-08 02:08:00,
2013-06-07 20:18:00,70.1,43.3,29.62,South,178,10.0,10.0,38,0.00,,,0.00,111,Wunderground v.1.15,2013-06-08 02:18:00,
2013-06-07 20:26:00,69.8,42.3,29.62,SSW,192,8.0,11.0,37,0.00,,,0.00,33,Wunderground v.1.15,2013-06-08 02:26:00,
2013-06-07 20:34:00,69.2,41.8,29.63,South,186,9.0,9.0,37,0.00,,,0.00,25,Wunderground v.1.15,2013-06-08 02:34:00,
2013-06-07 20:40:00,68.7,42.1,29.62,SSE,166,7.0,8.0,38,0.00,,,0.00,21,Wunderground v.1.15,2013-06-08 02:40:00,
2013-06-07 20:46:00,68.3,42.4,29.63,South,173,6.0,7.0,39,0.00,,,0.00,19,Wunderground v.1.15,2013-06-08 02:46:00,
2013-06-07 20:52:00,67.9,42.7,29.63,South,173,4.0,4.0,40,0.00,,,0.00,23,Wunderground v.1.15,2013-06-08 02:52:00,
2013-06-07 20:58:00,67.5,43.0,29.62,SSW,207,3.0,6.0,41,0.00,,,0.00,14,Wunderground v.1.15,2013-06-08 02:58:00,
2013-06-07 21:04:00,67.0,43.8,29.62,SW,225,3.0,3.0,43,0.00,,,0.00,11,Wunderground v.1.15,2013-06-08 03:04:00,
2013-06-07 21:10:00,66.4,44.4,29.62,SSW,213,2.0,6.0,45,0.00,,,0.00,9,Wunderground v.1.15,2013-06-08 03:10:00,
2013-06-07 21:16:00,65.5,43.0,29.63,South,183,5.0,9.0,44,0.00,,,0.00,5,Wunderground v.1.15,2013-06-08 03:16:00,
2013-06-07 21:22:00,65.0,43.1,29.63,South,178,6.0,11.0,45,0.00,,,0.00,0,Wunderground v.1.15,2013-06-08 03:22:00,
2013-06-07 21:28:00,64.8,42.9,29.64,SSW,196,6.0,11.0,45,0.00,,,0.00,0,Wunderground v.1.15,2013-06-08 03:28:00,
2013-06-07 21:34:00,64.7,42.9,29.64,SSW,198,7.0,7.0,45,0.00,,,0.00,0,Wunderground v.1.15,2013-06-08 03:34:00,
2013-06-07 21:40:00,64.4,43.2,29.64,South,182,5.0,5.0,46,0.00,,,0.00,0,Wunderground v.1.15,2013-06-08 03:40:00,
2013-06-07 21:46:00,64.0,42.8,29.64,SSW,207,4.0,5.0,46,0.00,,,0.00,0,Wunderground v.1.15,2013-06-08 03:46:00,
2013-06-07 21:52:00,63.6,43.0,29.65,SSW,209,4.0,5.0,47,0.00,,,0.00,0,Wunderground v.1.15,2013-06-08 03:52:00,
2013-06-07 21:58:00,63.1,43.1,29.65,SSW,192,4.0,5.0,48,0.00,,,0.00,0,Wunderground v.1.15,2013-06-08 03:58:00,
2013-06-07 22:02:00,62.9,42.9,29.66,SSW,196,4.0,4.0,48,0.00,,,0.00,0,Wunderground v.1.15,2013-06-08 04:02:00,
2013-06-07 22:04:00,62.7,42.7,29.66,SSW,196,3.0,4.0,48,0.00,,,0.00,0,Wunderground v.1.15,2013-06-08 04:04:00,
2013-06-07 22:10:00,62.3,43.4,29.66,SSW,196,3.0,3.0,50,0.00,,,0.00,0,Wunderground v.1.15,2013-06-08 04:10:00,
2013-06-07 22:14:00,62.0,42.6,29.66,SSW,196,2.0,3.0,49,0.00,,,0.00,0,Wunderground v.1.15,2013-06-08 04:14:00,
2013-06-07 22:20:00,61.3,43.0,29.66,SSW,196,0.0,0.0,51,0.00,,,0.00,0,Wunderground v.1.15,2013-06-08 04:20:00,
2013-06-07 22:26:00,60.3,41.6,29.66,West,263,0.0,0.0,50,0.00,,,0.00,0,Wunderground v.1.15,2013-06-08 04:26:00,
2013-06-07 22:34:00,59.0,42.4,29.67,West,263,0.0,0.0,54,0.00,,,0.00,0,Wunderground v.1.15,2013-06-08 04:34:00,
2013-06-07 22:40:00,58.1,42.9,29.67,West,263,0.0,0.0,57,0.00,,,0.00,0,Wunderground v.1.15,2013-06-08 04:40:00,
2013-06-07 22:46:00,57.7,42.1,29.68,South,189,1.0,3.0,56,0.00,,,0.00,0,Wunderground v.1.15,2013-06-08 04:46:00,
2013-06-07 22:52:00,57.5,41.9,29.68,South,177,2.0,2.0,56,0.00,,,0.00,0,Wunderground v.1.15,2013-06-08 04:52:00,
2013-06-07 22:58:00,57.7,41.6,29.68,South,174,2.0,3.0,55,0.00,,,0.00,0,Wunderground v.1.15,2013-06-08 04:58:00,
2013-06-07 23:04:00,58.2,42.1,29.68,South,174,1.0,1.0,55,0.00,,,0.00,0,Wunderground v.1.15,2013-06-08 05:04:00,
2013-06-07 23:10:00,58.5,41.9,29.68,South,174,0.0,0.0,54,0.00,,,0.00,0,Wunderground v.1.15,2013-06-08 05:10:00,
2013-06-07 23:16:00,58.5,41.9,29.69,South,174,0.0,2.0,54,0.00,,,0.00,0,Wunderground v.1.15,2013-06-08 05:16:00,
2013-06-07 23:22:00,58.5,42.8,29.68,South,174,0.0,0.0,56,0.00,,,0.00,0,Wunderground v.1.15,2013-06-08 05:22:00,
2013-06-07 23:30:00,58.2,42.6,29.69,WSW,252,1.0,9.0,56,0.00,,,0.00,0,Wunderground v.1.15,2013-06-08 05:30:00,
2013-06-07 23:38:00,57.9,42.3,29.69,SSW,203,2.0,9.0,56,0.00,,,0.00,0,Wunderground v.1.15,2013-06-08 05:38:00,
2013-06-07 23:44:00,57.7,42.6,29.70,SSW,203,0.0,2.0,57,0.00,,,0.00,0,Wunderground v.1.15,2013-06-08 05:44:00,
2013-06-07 23:50:00,57.5,42.8,29.70,SW,227,2.0,4.0,58,0.00,,,0.00,0,Wunderground v.1.15,2013-06-08 05:50:00,
2013-06-07 23:56:00,57.3,42.2,29.70,SW,227,6.0,9.0,57,0.00,,,0.00,0,Wunderground v.1.15,2013-06-08 05:56:00,